Home   Weather   Hückelhoven   Past weeks

Flag for Germany Past Weather in Hückelhoven, North Rhine-Westphalia, Germany — Yesterday and Last 2 Weeks

Now
25 °F

Passing clouds.


Feels Like: 25 °F
Forecast: 20 / 31 °F
Wind: No wind

Location: Geilenkirchen Airport

Current Time: Jan 18, 2017 at 9:28:27 pm

Latest Report: Jan 18, 2017 at 8:50 pm


Visibility: 4 mi

Pressure: 30.66 "Hg

Humidity: 86%

Dew Point: 21 °F

Location of HückelhovenLocation

Past Weather in Hückelhoven — Graph

°F

Hückelhoven Temperature Yesterday

Maximum temperature yesterday: 32 °F (at 1:50 pm)
Minimum temperature yesterday: 21 °F (at 8:50 am)
Average temperature yesterday: 26 °F

High & Low Weather Summary for the Past Weeks

 TemperatureHumidityPressure
High46 °F (Jan 11, 2:50 pm)100% (Jan 4, 1:50 am)30.74 "Hg (Jan 4, 1:50 am)
Low18 °F (Jan 6, 3:50 am)55% (Jan 6, 1:50 pm)28.94 "Hg (Jan 13, 12:50 am)
Average34 °F88%30.17 "Hg
* Reported Jan 3 7:50 pm — Jan 18 7:50 pm, Hückelhoven, Weather by CustomWeather, © 2017

Note: Actual official high and low records may vary slightly from our data, if they occured in-between our weather recording intervals... More about our weather records

Advertising

Hückelhoven Weather History for the Previous 24 Hours

Scroll right to see more
 ConditionsComfort  
Time TempWeatherWind HumidityBarometerVisibility
7:50 pm
Wed, Jan 18
27 °FClear.3 mph86%30.66 "Hg10 mi
6:50 pm27 °FClear.3 mph86%30.66 "Hg10 mi
5:50 pm27 °FClear.3 mph86%30.66 "Hg10 mi
4:50 pm28 °FSunny.8 mph80%30.66 "Hg10 mi
3:50 pm30 °FSunny.9 mph75%30.69 "Hg10 mi
2:50 pm30 °FSunny.9 mph75%30.66 "Hg10 mi
1:50 pm30 °FSunny.10 mph75%30.66 "Hg10 mi
12:50 pm28 °FSunny.12 mph80%30.69 "Hg10 mi
11:50 am28 °FSunny.12 mph80%30.72 "Hg10 mi
10:50 am27 °FSunny.7 mph80%30.72 "Hg10 mi
9:50 am23 °FPassing clouds.6 mph93%30.69 "Hg4 mi
8:50 am19 °FPassing clouds.5 mph93%30.69 "Hg4 mi
7:50 am18 °FIce fog.5 mph93%30.66 "Hg3 mi
6:50 am18 °FIce fog.5 mph100%30.69 "Hg3 mi
5:50 am18 °FIce fog.3 mph100%30.66 "Hg2 mi
4:50 am19 °FIce fog.6 mph100%30.69 "Hg2 mi
3:50 am19 °FIce fog.5 mph93%30.69 "Hg2 mi
2:50 am21 °FIce fog.3 mph93%30.69 "Hg2 mi
1:50 am21 °FIce fog.6 mph100%30.66 "Hg3 mi
12:50 am21 °FIce fog.5 mph93%30.69 "Hg3 mi
11:50 pm
Tue, Jan 17
21 °FIce fog.6 mph93%30.69 "Hg3 mi
10:50 pm23 °FIce fog.2 mph93%30.66 "Hg3 mi
9:50 pm23 °FPassing clouds.7 mph93%30.66 "Hg4 mi
Weather by CustomWeather, © 2017

See weather overviewHow to use our weather pages